Preview of NWS' New Version of Forecast
This preview is not operational and should not be used for support decisions.

Regional Weather Roundup (RWR)

Issued by Gray - Portland, ME (GYX)

                            
000
ASUS41 KGYX 240605
RWRGYX
WEATHER ROUNDUP FOR MAINE AND NEW HAMPSHIRE
NATIONAL WEATHER SERVICE GRAY ME
200 AM EDT WED APR 24 2019

MEZ002-005-006-010-012-015-018-020-021-024-026-027-029-240700-
MAINE
  
CITY           SKY/WX    TMP DP  RH WIND       PRES   REMARKS
PORTLAND       LGT RAIN  43  40  89 SE3       29.81F                  
6HR MIN TEMP:  43; 6HR MAX TEMP:  45; 6HR PCP:  0.02;                

SANFORD        RAIN      42  41  96 SE5       29.79F                  
BAR HARBOR     CLOUDY    38  37  97 CALM      29.81F FOG              
WISCASSET      CLOUDY    42  39  89 CALM      29.83F                  
6HR MIN TEMP:  42; 6HR MAX TEMP:  44;                                

ROCKLAND       CLOUDY    41  39  93 CALM      29.81F                  
FRYEBURG       LGT RAIN  42  41  96 SE5       29.78F                  
6HR MIN TEMP:  42; 6HR MAX TEMP:  45; 6HR PCP:  0.08;                

LEWISTONAUBURN LGT RAIN  41  40  96 SE5       29.80F                  
AUGUSTA        CLOUDY    40  38  93 NE3       29.81F                  
6HR MIN TEMP:  40; 6HR MAX TEMP:  43;                                

WATERVILLE     CLOUDY    39  38  96 NE3       29.78F FOG              
BANGOR         CLOUDY    38  36  92 NE8       29.81F                  
6HR MIN TEMP:  38; 6HR MAX TEMP:  41; 6HR PCP: TRACE;                

GREENVILLE       N/A     34  32  92 E8        29.73F                  
6HR MIN TEMP:  34; 6HR MAX TEMP:  38;                                

MILLINOCKET    CLOUDY    36  33  89 N3        29.82F                  
6HR MIN TEMP:  36; 6HR MAX TEMP:  38;                                

HOULTON        CLOUDY    35  33  92 N7        29.79F FOG              
6HR MIN TEMP:  35; 6HR MAX TEMP:  36;                                

PRESQUE ISLE   CLOUDY    34  29  82 N9        29.82F                  
6HR MIN TEMP:  34; 6HR MAX TEMP:  37;                                

FRENCHVILLE    CLOUDY    34  27  75 N7        29.82F                  
6HR MIN TEMP:  34; 6HR MAX TEMP:  36;                                

CARIBOU        CLOUDY    34  29  82 N9        29.81F                  
6HR MIN TEMP:  34; 6HR MAX TEMP:  36;                                

$$

NHZ002-005-008-009-011-012-014-240700-
NEW HAMPSHIRE
  
CITY           SKY/WX    TMP DP  RH WIND       PRES   REMARKS
PORTSMOUTH     LGT RAIN  42  41  95 E9        29.76F                  
ROCHESTER      LGT RAIN  42  42 100 SE8       29.77F                  
6HR MIN TEMP:  42; 6HR MAX TEMP:  48; 6HR PCP:  0.14;                

NASHUA         LGT RAIN  45  45 100 E6        29.75F                  
MANCHESTER     LGT RAIN  45  43  93 SE6       29.74F                  
6HR MIN TEMP:  45; 6HR MAX TEMP:  51; 6HR PCP:  0.08;                

CONCORD        CLOUDY    42  40  92 SE7       29.76F                  
6HR MIN TEMP:  42; 6HR MAX TEMP:  51; 6HR PCP:  0.13;                

LACONIA        CLOUDY    43  42  97 N5        29.75F FOG              
PLYMOUTH       DRIZZLE   43  42  95 E3        29.75F                  
BERLIN         LGT RAIN  43  41  93 CALM      29.69F                  
6HR MIN TEMP:  43; 6HR MAX TEMP:  46; 6HR PCP:  0.01;                

WHITEFIELD     LGT RAIN  47  43  86 NW3       29.65F                  
6HR MIN TEMP:  47; 6HR MAX TEMP:  51; 6HR PCP:  0.06;                

JAFFREY        CLOUDY    48  46  93 CALM      29.71F                  
6HR MIN TEMP:  48; 6HR MAX TEMP:  56; 6HR PCP:  0.07;                

KEENE          CLOUDY    53  51  93 S3        29.70S                  
LEBANON        LGT RAIN  50  45  83 NE7       29.66F                  
6HR MIN TEMP:  50; 6HR MAX TEMP:  62; 6HR PCP:  0.27;                

MT WASHINGTON  LGT RAIN  37  37 100 SW36G51     N/A  VSB 1/16         
6HR MIN TEMP:  37; 6HR MAX TEMP:  40; 6HR PCP:  0.04;                

$$

VTZ005-007-008-240700-
VERMONT
  
CITY           SKY/WX    TMP DP  RH WIND       PRES   REMARKS
ST JOHNSBURY     N/A     49  48  97 MISG      29.63F                  
MONTPELIER     LGT RAIN  52  50  93 S13       29.65F FOG              
BURLINGTON     LGT RAIN  59  55  87 S20G31    29.57S                  
$$

MAZ007-012-024-CTZ003-RIZ002-NYZ038-NYZ072-240700-
SOUTHERN NEW ENGLAND AND NY
  
CITY           SKY/WX    TMP DP  RH WIND       PRES   REMARKS
BOSTON         LGT RAIN  47  44  90 E15       29.75F                  
WORCESTER      FOG       48  48 100 S9        29.74F VSB 1            
NANTUCKET      FOG       44  44 100 SE13      29.84F VSB 1            
PROVIDENCE     LGT RAIN  48  48 100 S13       29.77F                  
HARTFORD       LGT RAIN  55  52  89 SE9       29.72F                  
ALBANY         CLOUDY    61  55  81 S12       29.67F                  
NEW YORK CITY  CLOUDY    66  51  58 SW13      29.70F                  
$$

ANZ081-ANZ082-ANZ150-NHZ014-MEZ023>029-240700-
COASTAL MARINE OBSERVATIONS
  
STATION/POSITION TIME  TEMP    WIND        PRES    WAVE
                       AIR SEA DIR/SP/G            HT/PER
                 (UTC) (F)     (DEG/KT/KT) (MB)    (FT/S)
ISLE OF SHOALS   0500   42     140/ 10/ 11 1009.5F
$$

.............KEY..............
   WCI - WIND CHILL
   TC  - TEMPERATURE IN CELSIUS
   VSB - VISIBILITY IN MILES
   HX  - HEAT INDEX
   FAIR- INDICATES FEW OR NO CLOUDS BELOW 12,000 FT, WITH NO 
         SIGNIFICANT WEATHER AND/OR OBSTRUCTIONS TO VISIBILITY.